Home   Weather   Weiz   Past weeks

Flag for Austria Past Weather in Weiz, Styria, Austria — Yesterday and Last 2 Weeks

Now
44 °F

Overcast.


Feels Like: N/A
Forecast: 33 / 41 °F
Wind: N/A

Location: Graz-Thalerhof-Flughafen

Current Time: Feb 23, 2017 at 1:12:58 pm

Latest Report: Feb 23, 2017 at 12:00 pm


Visibility: 9 mi

Pressure: 29.83 "Hg

Humidity: 83%

Dew Point: 39 °F

Location of WeizLocation

Past Weather in Weiz — Graph

°F

Weiz Temperature Yesterday

Maximum temperature yesterday: 55 °F (at 2:00 pm)
Minimum temperature yesterday: 33 °F (at 7:00 am)
Average temperature yesterday: 42 °F

High & Low Weather Summary for the Past Weeks

 TemperatureHumidityPressure
High55 °F (Feb 22, 2:00 pm)100% (Feb 12, 10:00 am)30.67 "Hg (Feb 12, 10:00 am)
Low21 °F (Feb 14, 5:00 am)39% (Feb 15, 4:00 pm)29.82 "Hg (Feb 22, 4:00 pm)
Average34 °F87%30.33 "Hg
* Reported Feb 8 11:00 am — Feb 23 11:00 am, Weiz, Weather by CustomWeather, © 2017

Note: Actual official high and low records may vary slightly from our data, if they occured in-between our weather recording intervals... More about our weather records

Advertising

Weiz Weather History for the Previous 24 Hours

Scroll right to see more
 ConditionsComfort  
Time TempWeatherWind HumidityBarometerVisibility
11:00 am
Thu, Feb 23
41 °FOvercast.N/A89%29.85 "Hg7 mi
10:00 am38 °FOvercast.N/A93%29.86 "Hg6 mi
9:00 am33 °FOvercast.N/A95%29.87 "Hg5 mi
8:00 am34 °FOvercast.N/A96%29.87 "Hg3 mi
7:00 am33 °FOvercast.N/A95%29.86 "Hg2 mi
6:00 am36 °FOvercast.N/A93%29.85 "Hg6 mi
5:00 am33 °FOvercast.N/A95%29.84 "Hg5 mi
4:00 am35 °FPassing clouds.N/A95%29.84 "Hg6 mi
3:00 am35 °FOvercast.N/A95%29.84 "Hg5 mi
2:00 am37 °FPassing clouds.N/A92%29.84 "Hg6 mi
1:00 am35 °FOvercast.N/A94%29.86 "Hg6 mi
12:00 am35 °FChilly.N/A95%29.86 "Hg5 mi
11:00 pm
Wed, Feb 22
35 °FPassing clouds.N/A94%29.87 "Hg6 mi
10:00 pm37 °FPassing clouds.N/A93%29.87 "Hg3 mi
9:00 pm35 °FPassing clouds.N/A92%29.86 "Hg6 mi
8:00 pm41 °FPassing clouds.N/A86%29.85 "Hg6 mi
7:00 pm43 °FPassing clouds.N/A83%29.85 "Hg8 mi
6:00 pm49 °FPassing clouds.N/A70%29.83 "Hg12 mi
5:00 pm50 °FOvercast.N/A70%29.83 "Hg10 mi
4:00 pm52 °FPartly sunny.N/A65%29.82 "Hg14 mi
3:00 pm54 °FScattered clouds.N/A58%29.83 "Hg11 mi
2:00 pm55 °FPassing clouds.5 mph58%29.84 "Hg11 mi
1:00 pm53 °FScattered clouds.3 mph62%29.89 "Hg15 mi
Weather by CustomWeather, © 2017

See weather overviewHow to use our weather pages